SCP
0 0 0 0 0 0 0 0 0 0 0 0 0 0 0 0 0 0 1 1 1 1 1 1 1 1 1 1 1 1 1 1 1 1 0 0 0 0 0 0 0 0 0 0
0 0 0 0 0 0 0 0 0 0 0 0 0 0 0 0 0 1 1 1 1 1 1 1 1 1 1 1 1 1 1 1 1 1 0 0 0 0 0 0 0 0 0 0
0 0 0 0 0 0 0 0 0 0 0 0 0 0 1 1 1 1 1 1 1 1 1 1 1 1 1 1 1 1 1 1 1 1 0 0 0 0 0 0 0 0 0 0
0 0 0 0 0 0 0 0 0 0 0 0 0 1 1 1 1 1 1 1 1 1 1 1 1 1 1 1 1 1 1 1 1 0 0 0 0 0 0 0 0 0 0 0
0 0 0 0 0 0 0 0 0 0 0 0 1 1 1 1 1 1 1 1 1 1 1 1 1 1 1 1 1 1 1 0 0 0 0 0 0 0 0 0 0 0 0 0
0 0 0 0 0 0 0 0 0 0 0 0 1 1 0 1 1 1 1 1 1 1 1 1 1 1 1 1 1 1 0 0 0 0 0 0 0 0 0 0 0 0 0 0
0 0 0 0 0 0 0 0 0 0 0 0 0 0 0 1 1 1 1 1 1 1 1 1 1 1 1 1 0 0 0 0 0 0 0 0 0 0 0 0 0 0 0 0
0 0 0 0 0 0 0 0 0 0 0 0 0 1 1 1 1 1 1 1 1 1 1 1 1 1 1 0 0 0 0 0 0 0 0 0 0 0 0 0 0 0 0 0
0 0 0 0 0 0 0 0 0 0 0 0 1 1 1 1 1 1 1 1 1 1 1 1 1 1 0 0 0 0 0 0 0 0 0 0 0 0 0 0 0 0 0 0
0 0 0 0 0 0 0 0 0 0 0 0 1 1 1 1 1 1 1 1 1 1 1 1 0 0 0 0 0 0 0 0 0 0 0 0 0 0 0 0 0 0 0 0
0 0 0 0 0 0 0 0 0 0 0 0 1 1 1 1 1 1 1 1 1 1 1 0 0 0 0 0 0 0 0 0 0 0 0 0 0 0 0 0 0 0 0 0
0 0 0 0 0 0 0 0 0 0 0 1 1 1 1 1 1 1 1 0 0 0 0 0 0 0 0 0 0 0 0 0 0 0 0 0 0 0 0 0 0 0 0 0
0 0 0 0 0 0 0 0 0 0 0 1 1 1 1 1 1 1 1 0 0 0 0 0 0 0 0 0 0 0 0 0 0 0 0 0 0 0 0 0 0 0 0 0
0 0 0 0 0 0 0 0 0 0 1 1 1 1 1 1 1 0 0 0 0 0 0 0 0 0 0 0 0 0 0 0 0 0 0 0 0 0 0 0 0 0 0 0
0 0 0 0 0 0 0 0 0 0 1 1 1 1 0 0 0 0 0 0 0 0 0 0 0 0 0 0 0 0 0 0 0 0 0 0 0 0 0 0 0 0 0 0
0 0 0 0 0 0 0 0 0 0 0 0 0 0 0 0 0 0 0 0 0 0 0 0 0 0 0 0 0 0 0 0 0 0 0 0 0 0 0 0 0 0 0 0
0 0 0 0 0 0 0 0 0 0 0 0 0 0 0 0 0 0 0 0 0 0 0 0 0 0 0 0 0 0 0 0 0 0 0 0 0 0 0 0 0 0 0 0
0 0 0 0 0 0 0 0 0 0 0 0 0 0 0 0 0 0 0 0 0 0 0 0 0 0 0 0 0 0 0 0 0 0 0 0 0 0 0 0 0 0 0 0
0 0 0 0 0 0 0 0 0 0 0 0 0 0 0 0 0 0 0 0 0 0 0 0 0 0 0 0 0 0 0 0 0 0 0 0 0 0 0 0 0 0 0 0
0 0 0 0 0 0 0 0 0 0 0 0 0 0 0 0 0 0 0 0 0 0 0 0 0 0 0 0 0 0 0 0 0 0 0 0 0 0 0 0 0 0 0 0
0 0 0 0 0 0 0 0 0 0 0 0 0 0 0 0 0 0 0 0 0 0 0 0 0 0 0 0 0 0 0 0 0 0 0 0 0 0 0 0 0 0 0 0
0 0 0 0 0 0 0 0 0 0 0 0 0 0 0 0 0 0 0 0 0 0 0 0 0 0 0 0 0 0 0 0 0 0 0 0 0 0 0 0 0 0 0 0
0 0 0 0 0 0 0 0 0 0 -0 -0 0 0 0 0 0 0 0 0 0 0 0 0 0 0 0 0 0 0 0 0 0 0 0 0 0 0 0 0 0 0 0 0
0 0 0 0 0 0 0 0 0 0 0 0 0 0 0 0 0 0 0 0 0 0 0 0 0 0 0 0 0 0 0 0 0 0 0 0 0 0 0 0 0 0 0 0
0 0 0 0 0 0 0 0 0 0 0 0 0 0 0 0 0 0 0 0 0 0 0 0 0 0 0 0 0 0 0 0 0 0 0 0 0 0 0 0 0 0 0 0
0 0 0 0 0 0 0 0 0 0 0 0 0 0 0 0 0 0 0 0 0 0 0 0 0 0 0 0 0 0 0 0 0 0 0 0 0 0 0 0 0 0 0 0
0 0 0 0 0 0 0 0 0 0 0 0 0 0 0 0 0 0 0 0 0 0 0 0 0 0 0 0 0 0 0 0 0 0 0 0 0 0 0 0 0 0 0 0
Wind_Speed
4 3 4 4 6 7 6 9 9 9 8 10 8 6 4 3 3 4 4 4 5 4 4 4 4 4 5 5 4 5 5 4 3 3 3 3 3 3 3 3 3 2 3 2
1 1 3 2 4 7 5 6 5 4 7 7 3 3 3 4 4 5 4 4 4 4 4 4 5 5 5 5 5 5 5 4 3 3 4 4 3 3 4 4 3 4 3 3
3 1 2 2 4 6 4 5 8 9 10 4 4 7 8 7 6 5 5 5 5 5 5 5 5 5 6 6 6 6 5 4 4 4 5 4 4 4 4 4 4 4 4 4
3 3 4 8 3 4 5 3 5 5 5 6 7 5 3 4 6 5 5 5 5 4 5 5 5 6 6 6 6 6 5 4 5 5 5 5 5 5 4 4 4 4 4 4
5 4 3 4 1 3 4 2 3 4 4 3 4 4 1 3 5 6 6 5 5 4 5 6 6 7 8 7 6 6 5 5 4 5 6 6 5 5 4 4 5 4 5 5
5 5 6 7 2 1 4 2 3 4 5 6 6 4 5 4 5 4 5 5 5 6 6 6 6 7 8 7 7 6 5 5 5 5 6 6 5 5 4 5 5 5 5 5
5 3 6 6 3 2 5 7 3 4 5 7 6 6 4 6 5 5 6 6 7 7 6 6 6 7 8 7 6 6 6 6 6 6 6 6 5 5 5 5 6 6 6 5
5 3 6 2 2 5 6 2 1 2 3 4 4 3 5 7 7 7 7 8 8 8 6 6 6 8 8 6 6 7 7 7 7 6 6 5 6 6 5 6 6 5 5 5
7 7 4 2 2 2 2 2 2 2 2 5 5 5 5 6 7 7 8 7 7 8 8 6 6 7 8 6 7 8 8 7 7 7 6 5 5 6 5 5 4 4 4 4
1 2 2 2 1 1 1 2 1 1 2 4 5 6 6 7 7 7 7 7 7 9 8 6 5 6 7 7 7 8 9 7 7 7 6 5 4 4 4 4 4 3 3 3
1 1 2 2 1 1 1 2 3 3 2 4 7 7 7 7 7 7 6 6 7 8 8 7 6 6 6 7 8 8 8 7 7 6 6 6 5 4 3 2 2 3 3 3
4 5 3 3 2 1 1 2 3 4 4 3 5 8 7 6 5 6 7 6 7 7 7 7 7 6 6 6 8 9 7 6 5 5 5 5 5 6 10 7 6 5 5 4
3 2 2 2 1 0 2 2 3 3 4 4 4 6 7 6 5 6 6 7 7 7 7 7 7 7 6 6 7 8 7 6 5 5 5 5 4 5 5 6 9 8 7 6
3 2 1 2 1 1 3 4 5 5 4 4 5 6 7 6 6 6 6 6 6 7 7 7 8 6 6 7 7 7 7 7 6 5 5 5 4 4 4 4 4 3 5 5
2 3 4 2 1 2 3 4 6 4 4 4 5 6 7 7 6 5 5 6 7 7 7 7 7 6 6 7 8 8 7 5 5 5 5 5 4 4 4 4 4 3 2 3
1 2 3 3 3 2 3 4 5 3 4 5 5 5 5 6 5 5 5 6 7 7 6 7 6 6 7 7 7 6 5 8 7 5 5 5 5 4 4 4 4 3 3 3
4 4 4 4 4 3 3 4 4 4 3 5 6 6 6 6 5 5 4 4 5 5 5 6 6 6 7 7 7 5 5 7 9 6 5 5 5 5 4 4 4 3 2 2
4 5 5 6 6 5 4 3 3 3 4 5 6 6 6 6 5 5 4 5 5 4 3 5 6 7 6 6 6 5 6 6 6 6 5 5 5 4 4 4 4 4 3 3
3 3 3 3 4 4 4 4 3 3 4 5 6 6 5 5 5 5 5 6 6 4 3 5 8 7 7 7 7 5 6 6 5 5 5 6 5 5 5 5 5 4 4 4
2 3 4 4 3 4 4 4 4 4 4 5 6 5 5 4 5 5 5 4 2 3 4 6 7 6 6 7 8 5 6 6 6 5 5 5 5 5 5 5 5 5 4 4
2 4 5 5 4 4 4 4 5 5 4 5 6 5 5 4 4 5 5 4 2 3 5 7 5 5 5 6 7 5 6 6 6 5 5 5 5 5 5 5 5 5 4 4
2 3 4 4 5 4 3 4 5 5 4 4 5 5 6 5 4 4 3 3 3 5 4 4 4 6 7 7 5 5 5 5 5 4 4 4 5 5 5 5 5 5 4 4
2 3 3 3 4 4 4 4 4 4 5 5 5 5 5 4 3 4 3 2 3 5 4 4 6 9 8 5 4 4 4 4 4 4 4 4 4 4 5 5 5 4 4 4
3 3 3 3 4 5 4 3 3 3 4 4 3 5 5 4 3 2 3 6 6 7 4 6 8 8 7 4 4 4 4 4 4 4 4 4 4 4 4 4 4 4 4 5
2 3 3 4 4 3 3 4 4 5 5 4 4 3 3 3 3 4 4 6 7 7 5 6 8 7 4 3 3 3 3 3 4 4 4 4 4 3 3 3 3 3 3 4
2 2 2 2 2 2 2 3 3 3 4 4 3 3 3 3 5 5 4 5 6 6 5 4 4 4 3 3 3 4 3 4 4 4 4 3 4 3 3 3 4 3 3 4
2 2 2 2 2 2 3 3 4 3 4 4 4 3 3 4 4 5 5 4 4 4 4 4 3 3 3 3 3 4 3 3 3 3 3 3 3 3 3 4 3 3 3 3
Wind_Direction
207 210 172 171 172 170 168 171 174 214 219 240 235 216 207 197 166 135 131 135 146 149 145 137 133 133 133 128 126 128 128 131 142 141 131 125 121 120 110 102 97 90 85 74
218 212 179 169 183 181 185 175 189 193 241 244 225 171 178 186 179 166 163 160 156 147 140 138 141 141 133 128 127 128 131 136 132 123 113 111 114 111 104 95 85 83 83 80
206 260 105 244 214 188 189 188 173 197 225 199 176 188 193 191 189 182 177 170 164 158 152 148 143 135 135 132 127 127 131 127 111 107 104 100 100 97 97 97 94 89 83 80
132 115 200 241 239 187 175 205 206 206 203 186 188 186 188 183 185 188 177 168 166 153 141 135 127 122 123 122 125 127 125 119 113 112 106 99 96 94 92 93 93 92 85 81
121 153 249 284 228 160 153 249 219 188 185 164 128 88 344 208 188 188 175 162 156 146 137 130 128 129 125 122 121 119 118 115 109 110 107 100 99 98 96 92 86 84 82 80
123 145 211 235 255 199 118 266 254 185 182 161 132 146 234 196 163 154 140 137 133 124 120 122 126 127 125 124 123 123 124 119 112 110 111 109 106 100 92 91 87 83 78 74
138 171 245 249 278 110 154 227 246 188 185 168 179 197 188 147 140 134 129 131 129 125 125 127 128 125 123 123 124 125 120 113 107 104 106 106 102 96 96 96 91 85 78 67
135 154 240 265 130 166 211 235 212 185 177 174 179 134 130 137 135 133 132 133 132 128 123 121 127 127 125 124 121 118 114 109 105 102 104 104 102 97 94 99 96 90 83 68
175 200 237 264 208 219 179 183 211 186 185 164 146 141 134 133 136 140 137 134 129 128 124 123 129 133 130 126 123 118 111 108 105 99 92 97 103 105 100 96 100 99 96 86
143 282 301 314 302 319 202 195 228 183 153 147 146 142 137 139 140 138 134 134 131 129 130 130 126 121 123 127 124 120 117 113 109 104 98 87 84 91 103 107 111 111 109 106
124 275 347 4 7 348 8 70 76 80 108 136 137 135 140 142 143 142 138 137 137 136 135 137 129 122 125 129 127 123 121 116 111 106 107 96 79 61 76 73 117 136 135 135
199 210 183 243 278 310 80 76 91 95 86 92 128 133 133 137 142 140 139 137 133 131 134 133 131 130 131 134 135 132 128 125 121 119 113 110 104 79 54 63 71 84 106 117
207 203 203 244 273 157 132 105 91 94 111 105 106 118 125 128 131 134 140 143 145 144 140 136 136 137 140 141 139 138 138 137 132 131 130 128 124 118 102 63 59 65 80 96
197 157 200 229 211 147 121 104 92 85 90 105 118 118 117 117 123 135 145 148 144 139 139 140 142 146 148 144 139 136 136 139 139 139 139 137 133 128 126 124 107 64 47 74
226 196 192 179 134 116 111 110 105 105 106 110 126 134 132 133 140 143 140 136 133 136 142 143 144 146 143 144 142 142 141 142 139 136 135 133 129 125 124 123 121 115 96 72
203 149 151 148 154 146 127 126 128 136 136 135 133 134 131 130 131 128 132 142 144 151 155 151 150 148 144 145 143 142 145 145 140 138 137 136 136 136 136 136 137 139 138 132
160 180 176 172 174 167 162 154 147 151 149 141 140 132 124 121 119 122 126 133 140 142 148 150 150 147 148 149 147 144 143 146 144 142 146 148 149 150 149 149 151 150 148 148
202 200 188 174 168 164 157 149 146 147 149 145 138 132 134 136 141 139 133 123 118 114 129 146 145 146 147 147 144 143 143 146 151 153 152 152 153 152 152 153 155 153 142 135
175 167 154 156 159 150 152 153 153 145 130 135 138 139 140 140 140 139 136 133 136 140 152 143 142 143 143 147 142 141 144 145 146 146 147 147 148 153 158 161 162 163 160 155
139 139 134 130 130 137 144 143 141 129 129 133 130 128 132 135 133 132 129 128 144 152 147 140 139 138 142 147 144 144 147 149 149 148 148 153 158 163 166 168 169 169 170 171
125 132 137 143 137 134 139 142 135 132 130 132 137 143 142 138 137 136 133 129 120 126 133 135 136 137 139 143 142 143 146 149 153 156 157 160 163 165 169 172 173 174 176 177
122 127 132 136 133 133 136 138 134 132 131 131 133 134 131 128 124 112 106 133 141 137 131 130 130 133 138 137 137 140 145 150 154 156 160 166 169 172 175 176 178 180 181 183
123 124 126 133 135 130 119 123 133 137 141 145 146 146 143 139 139 136 128 128 130 130 124 124 130 131 132 129 135 141 148 154 158 162 165 167 170 174 177 179 181 182 182 184
102 108 113 114 114 116 119 121 120 121 124 127 137 143 138 128 104 92 121 129 128 123 118 128 131 131 130 131 137 143 151 154 154 154 154 157 162 165 168 171 174 177 179 181
95 105 112 117 122 131 131 121 110 106 108 103 99 105 113 124 132 132 124 127 127 120 118 129 132 131 129 130 136 143 149 153 153 151 151 154 160 163 166 168 171 171 177 183
77 97 109 126 137 134 134 128 124 122 118 113 100 96 98 101 111 116 117 122 123 121 122 126 131 131 128 130 135 136 135 138 139 141 147 150 155 159 166 171 174 178 182 184
80 90 98 94 99 125 131 131 131 133 135 133 123 114 115 114 114 116 117 119 119 119 121 122 124 127 129 127 126 127 128 129 133 141 147 150 154 162 172 176 181 184 187 189